Flag for Cameroon Weather past 2 weeks in Douala, Cameroon

Now
90 °F

Broken clouds.


Feels Like: 103 °F
Forecast: 74 / 85 °F
Wind: 9 mph from Southwest

Location: Douala Obs.

Current Time: Apr 25, 2015 at 4:06:57 PM

Latest Report: Apr 25, 2015 at 3:00 PM


Visibility: N/A

Pressure: 29.83 "Hg

Humidity: 67%

Dew point: 77 °F

Location of DoualaLocation

Historic Weather in Douala — Graph

°F

Douala temperature yesterday

Maximum temperature yesterday: 88 °F (at 4:00 PM)
Minimum temperature yesterday: 75 °F (at 5:00 AM)
Average temperature yesterday: 81 °F

Past Weeks' High & Low Weather Summary

 TemperatureHumidityPressure
High93 °F (Apr 19, 1:00 PM)100% (Apr 12, 1:00 AM)30.04 "Hg (Apr 12, 1:00 AM)
Low63 °F (Apr 23, 6:00 AM)59% (Apr 11, 1:00 PM)29.74 "Hg (Apr 10, 4:00 PM)
Average83 °F83%29.85 "Hg
* Reported Apr 10 2:00 PM — Apr 25 2:00 PM, Douala, Weather by CustomWeather, © 2015

Note: Actual official high and low records may vary slightly from our data, if they occured in-between our weather recording intervals... More about our weather records

Advertising

Douala weather history for previous 24 hours

 ConditionsComfort  
Time TempWeatherWind HumidityBarometerVisibility
2:00 PM
Sat, Apr 25
91 °FBroken clouds.7 mph63%29.86 "HgN/A
1:00 PM91 °FPartly sunny.7 mph63%29.89 "HgN/A
12:00 PM90 °FPartly sunny.5 mph67%29.92 "HgN/A
11:00 AM88 °FPartly sunny.5 mph70%29.92 "HgN/A
10:00 AM84 °FPartly sunny.5 mph79%29.92 "HgN/A
9:00 AM81 °FPartly sunny.5 mph89%29.92 "HgN/A
8:00 AM79 °FThunderstorms. Partly sunny.3 mph94%29.92 "HgN/A
7:00 AM77 °FThunderstorms. Partly sunny.No wind94%29.89 "HgN/A
6:00 AM77 °FThunderstorms. Passing clouds.No wind94%29.89 "Hg4 mi
5:00 AM77 °FThunderstorms. Partly cloudy.No wind94%29.89 "Hg4 mi
4:00 AM79 °FThunderstorms. Passing clouds.7 mph89%29.89 "Hg6 mi
3:00 AM79 °FThunderstorms. Passing clouds.No wind94%29.89 "HgN/A
2:00 AM79 °FLight rain. Passing clouds.No wind94%29.89 "HgN/A
1:00 AM79 °FPassing clouds.No wind89%29.92 "HgN/A
12:00 AM81 °FPassing clouds.No wind84%29.92 "HgN/A
11:00 PM
Fri, Apr 24
81 °FPassing clouds.No wind84%29.92 "HgN/A
10:00 PM81 °FPassing clouds.No wind84%29.86 "HgN/A
9:00 PM81 °FPassing clouds.No wind89%29.83 "HgN/A
8:00 PM81 °FPassing clouds.No wind89%29.80 "HgN/A
7:00 PM82 °FPassing clouds.No wind84%29.80 "HgN/A
6:00 PM84 °FBroken clouds.No wind74%29.80 "HgN/A
5:00 PM88 °FBroken clouds.5 mph66%29.77 "HgN/A
4:00 PM88 °FBroken clouds.5 mph62%29.77 "HgN/A
Weather by CustomWeather, © 2015

See weather overviewHow to use our weather pages